Aérodrome :
LOGIN :

S'inscrire | Disclaimer

   EN    FR    IT 

 










Légende :    VFR   VFR Marginal   IFR   IFR Intensif   IFR Très Intensif
Visi : 
Plafond : 
>= 8 km
>= 3000ft
5 à 8 km
1000 à 3000 ft
1500m à 5 km
500 à 1000 ft
800 à 1500m
200 à 500 ft
< 800m
< 200 ft
Symboles :   Orages  Brouillard  Fortes neiges  Fortes précipitations  Vent > 20 kt
SIGMETs :   Divers  Orages  Givrage  Turbulence  Onde Orograph.  Cendres Volcan.







- Altitude de l'aérodrome : 291 ft
- Code IATA : ORY
- Voir les cartes d'approche


LFPO - Paris-Orly

DERNIER METAR :
  • 212130Z 03011KT CAVOK 13/04 Q1027 NOSIG

METARs EXPIRÉS :
  • 212100Z 03014KT CAVOK 14/05 Q1027 NOSIG
  • 212030Z 03016KT CAVOK 15/05 Q1027 NOSIG
  • 212000Z 03013KT CAVOK 15/05 Q1026 NOSIG
  • 211930Z 02011KT CAVOK 16/05 Q1026 NOSIG
  • 211900Z 03013KT 360V060 CAVOK 17/05 Q1025 NOSIG

TAF TAF LFPO
Valide du 21 à 18h jusqu'au 23 à 00h UTC


211700Z 2118/2224 01012KT CAVOK
BECMG 2123/2202 01005KT
BECMG 2207/2210 01010KT 9999 SCT030
BECMG 2212/2214 CAVOK
TEMPO 2213/2219 01012G24KT
ATIS : +33 1 49 75 65 80
Pas de NOTAMs connus pour ce terrain.



MET'MAP, la Météo Aéronautique d'un coup d'oeil ! - Copyright ORBIFLY Décembre 2007 - Disclaimer

ORBIFLY MET'MAP TEAM :

Programmation & Développement : Alexandra Zaïnal
Conception & Développement : Baudouin d'Aumeries
Co-Programmation & Développement : Marc-Olivier Méhu
Soutien technique & logistique : Manuel Goepfert

Contact : metmap@orbifly.com




SOURCES & CREDITS :

   NOAA